Weather History for Denver, CO

Change the Weather History Date:

Monday, March 3, 2014

  Actual Average Record
Temperature  
Mean Temperature 39 °F 37 °F  
Max Temperature 60 °F 51 °F 76 °F (1921)
Min Temperature 18 °F 23 °F -8 °F (1960)
Degree Days  
Heating Degree Days 26 28  
Month to date heating degree days 124 86  
Since 1 July heating degree days 4643 4525  
Cooling Degree Days 0 0  
Month to date cooling degree days 0 0  
Year to date cooling degree days 0 0  
Moisture  
Dew Point 20 °F    
Average Humidity 52    
Maximum Humidity 84    
Minimum Humidity 19    
Precipitation  
Precipitation 0.00 in 0.02 in 0.67 in (1957)
Month to date precipitation 0.04 0.05  
Year to date precipitation 1.17 0.83  
Snow  
Snow 0.00 in - - ()
Month to date snowfall T  
Since 1 July snowfall 25.7  
Snow Depth 0.00 in    
Sea Level Pressure  
Sea Level Pressure 29.97 in    
Wind  
Wind Speed 10 mph (WSW)    
Max Wind Speed 18 mph    
Max Gust Speed 24 mph    
Visibility 10 miles    
Events      
T = Trace of Precipitation, MM = Missing Value Source: NWS Daily Summary

Daily Weather History Graph

Daily Weather History Graph

Search for Another Location

Airport:

Trip Planner

Search our weather history database for the weather conditions in past years. The results will help you decide how hot, cold, wet, or windy it might be!

Date:

Astronomy

Mar. 03, 2014 Rise Set
Actual Time 6:28 AM MST 5:52 PM MST
Civil Twilight 6:01 AM MST 6:19 PM MST
Nautical Twilight 5:30 AM MST 6:51 PM MST
Astronomical Twilight 4:59 AM MST 7:22 PM MST
Moon 7:38 AM MST (3/3) 8:58 PM MST (3/3)
Length of Visible Light 12h 18m
Length of Day
11h 24m
Waxing Crescent, 8% of the Moon is Illuminated
Mar 3
Waxing Crescent
Mar 8
First Quarter
Mar 16
Full
Mar 23
Last Quarter
Mar 30
New

Hourly Weather History & Observations

Time (MST) Temp. Windchill Dew Point Humidity Pressure Visibility Wind Dir Wind Speed Gust Speed Precip Events Conditions
12:53 AM 21.9 °F 12.5 °F 16.0 °F 78% 30.18 in 10.0 mi SW 8.1 mph - N/A   Clear
1:53 AM 19.9 °F 12.1 °F 16.0 °F 85% 30.15 in 9.0 mi West 5.8 mph - N/A   Scattered Clouds
2:53 AM 21.9 °F 11.7 °F 17.1 °F 82% 30.10 in 9.0 mi SW 9.2 mph - N/A   Mostly Cloudy
3:53 AM 34.0 °F 25.5 °F 23.0 °F 64% 30.02 in 10.0 mi SSW 11.5 mph - N/A   Overcast
4:53 AM 33.1 °F 25.5 °F 24.1 °F 70% 30.03 in 10.0 mi South 9.2 mph - N/A   Overcast
5:53 AM 35.1 °F 26.9 °F 24.1 °F 64% 30.04 in 10.0 mi SW 11.5 mph - N/A   Overcast
6:53 AM 37.0 °F 30.4 °F 21.9 °F 54% 30.04 in 10.0 mi SSW 9.2 mph - N/A   Mostly Cloudy
7:53 AM 39.9 °F 32.5 °F 21.9 °F 49% 30.04 in 10.0 mi SSW 12.7 mph - N/A   Mostly Cloudy
8:53 AM 43.0 °F 37.2 °F 24.1 °F 47% 30.03 in 10.0 mi SW 10.4 mph - N/A   Mostly Cloudy
9:53 AM 50.0 °F - 23.0 °F 35% 30.00 in 10.0 mi WSW 15.0 mph - N/A   Mostly Cloudy
10:53 AM 55.0 °F - 19.9 °F 25% 29.97 in 10.0 mi West 12.7 mph 24.2 mph N/A   Mostly Cloudy
11:53 AM 57.0 °F - 19.9 °F 24% 29.96 in 10.0 mi West 13.8 mph 24.2 mph N/A   Scattered Clouds
12:53 PM 59.0 °F - 19.9 °F 22% 29.91 in 10.0 mi NW 11.5 mph 19.6 mph N/A   Scattered Clouds
1:53 PM 57.9 °F - 19.9 °F 23% 29.90 in 10.0 mi NW 10.4 mph - N/A   Scattered Clouds
2:53 PM 59.0 °F - 19.9 °F 22% 29.90 in 10.0 mi NNW 11.5 mph - N/A   Scattered Clouds
3:53 PM 59.0 °F - 19.0 °F 21% 29.85 in 10.0 mi West 5.8 mph - N/A   Partly Cloudy
4:53 PM 57.0 °F - 15.1 °F 19% 29.88 in 10.0 mi WNW 11.5 mph - N/A   Partly Cloudy
5:53 PM 52.0 °F - 16.0 °F 24% 29.90 in 10.0 mi West 5.8 mph - N/A   Scattered Clouds
6:53 PM 46.9 °F - 19.0 °F 33% 29.91 in 10.0 mi WSW 9.2 mph - N/A   Scattered Clouds
7:53 PM 46.0 °F 41.9 °F 18.0 °F 33% 29.90 in 10.0 mi West 8.1 mph - N/A   Scattered Clouds
8:53 PM 46.0 °F 42.5 °F 19.0 °F 34% 29.89 in 10.0 mi WSW 6.9 mph - N/A   Mostly Cloudy
9:53 PM 41.0 °F 34.7 °F 19.0 °F 41% 29.88 in 10.0 mi SSW 10.4 mph - N/A   Mostly Cloudy
10:53 PM 36.0 °F 29.0 °F 19.9 °F 52% 29.86 in 10.0 mi South 9.2 mph - N/A   Scattered Clouds
11:53 PM 41.0 °F 35.8 °F 18.0 °F 40% 29.84 in 10.0 mi SW 8.1 mph - N/A   Scattered Clouds